Hanover, MD (21076)

11:27 AM EDT on July 23, 2017 (GMT -0400)
Ridge Forest Glen | | Change Station

Elev 213 ft 39.15 °N, 76.72 °W | Updated 43 seconds ago

Mostly Cloudy
Mostly Cloudy
86.4 °F
Feels Like 96 °F
N
4.0
Wind Variable Wind from SW

Today
High -- | Low -- °F
--% Chance of Precip.
Yesterday
High -- | Low -- °F
Precip. -- in
Pressure 29.78 in
Visibility 10.0 miles
Clouds Few 2000 ft
Scattered Clouds 16000 ft
Mostly Cloudy 25000 ft
Heat Index 96 °F
Dew Point 75 °F
Humidity 70%
Rainfall 0.11 in
Snow Depth Not available.
5:59 AM 8:26 PM
New Moon, 0% visible
METAR KBWI 231454Z 25006KT 10SM FEW020 SCT160 BKN250 29/23 A2979 RMK AO2 SLP085 T02940228 53001
Pressure 29.78 in
Visibility 10.0 miles
Clouds Few 2000 ft
Scattered Clouds 16000 ft
Mostly Cloudy 25000 ft
Heat Index 96 °F
Dew Point 75 °F
Humidity 70%
Rainfall 0.11 in
Snow Depth Not available.
5:59 AM 8:26 PM
New Moon, 0% visible
METAR KBWI 231454Z 25006KT 10SM FEW020 SCT160 BKN250 29/23 A2979 RMK AO2 SLP085 T02940228 53001

Get Severe Weather Alerts

Thanks for signing up!

Be on the lookout for a verification email in your inbox.

You'll start receiving the daily forecast at 6 AM.

×

10-Day Weather Forecast

Almanac

Astronomy

Jul. 23, 2017 Rise Set
Actual Time
Civil Twilight
Nautical Twilight
Astronomical Twilight
Moon
Length of Visible Light
Length of Day
Tomorrow will be .
, % of the Moon is Illuminated

Today's Extremes

State Highs State Lows

Community

WunderPhotos

Category 6

Welcome to Category 6. This is the collective home for Weather Underground's featured writeups by Dr. Jeff Masters (right), Bob Henson (left), Chris Burt, and other regular contributors.

Nearby

Air Quality

  Air Quality AQ Index Pollutant
Not available.

Snow Depth

Station Depth Elevation

Earthquake Activity

City Distance Mag. Time & Date
Minimum magnitude displayed is 2.5.

Coastal Water Temperatures

Place Temperature

Stations

Nearby Weather Stations

Station Location Temp. Windchill Dew Point Humidity Wind Precip. Elev Updated Type
                   

Watches & Warnings

There are currently no watches in effect.